FW5965 Weather Reports


time (UTC)temp
C
wind
direction
speed
KPH
gust
KPH
rain 1hr
cm
rain 24hr
cm
rain mn
cm
humidity
%
barometer
mb
20260906224501 26 155 0.0 0.0 0.00 0.13 0.00 43 1022.2
20260906220002 23 202 0.0 0.0 0.00 0.13 0.00 45 1022.8
20260906214500 23 16 0.0 0.0 0.00 0.13 0.00 46 1023.0
20260906213001 24 30 0.0 0.0 0.00 0.13 0.00 45 1023.1
20260906211501 26 136 0.0 0.0 0.00 0.13 0.00 39 1023.1
20260906205959 27 144 0.0 1.6 0.00 0.13 0.00 36 1023.3
20260906204501 27 78 0.0 1.6 0.00 0.13 0.00 38 1023.3
20260906202959 26 101 0.0 0.0 0.00 0.13 0.00 41 1023.6
20260906201459 26 110 0.0 1.6 0.00 0.13 0.00 39 1023.7
20260906200002 26 138 0.0 3.2 0.00 0.13 0.00 40 1023.9
20260906194458 26 66 0.0 9.7 0.00 0.13 0.00 40 1023.8
20260906193000 26 165 0.0 6.4 0.00 0.13 0.00 38 1023.9
20260906191459 26 216 0.0 1.6 0.00 0.13 0.00 39 1024.1
20260906190003 25 178 0.0 1.6 0.00 0.13 0.00 40 1024.2
20260906184459 25 208 0.0 0.0 0.00 0.13 0.00 43 1024.3
20260906183001 26 199 0.0 1.6 0.00 0.13 0.00 37 1024.6
20260906181501 26 155 0.0 1.6 0.00 0.13 0.00 37 1024.6
20260906180002 26 35 0.0 0.0 0.00 0.13 0.00 40 1024.9
20260906174500 25 158 0.0 1.6 0.00 0.13 0.00 43 1025.3
20260906172959 25 169 0.0 4.8 0.00 0.13 0.00 40 1025.5
20260906171501 24 108 0.0 0.0 0.00 0.13 0.00 43 1025.8
20260906170000 23 103 0.0 0.0 0.00 0.13 0.00 45 1025.8
20260906164501 23 126 0.0 0.0 0.00 0.13 0.00 44 1025.9
20260906161500 22 205 0.0 0.0 0.00 0.13 0.00 41 1025.9
20260906160004 22 237 0.0 0.0 0.00 0.13 0.00 46 1026.0
20260906154459 21 248 0.0 0.0 0.00 0.13 0.00 49 1025.9
20260906153000 20 279 0.0 0.0 0.00 0.13 0.00 48 1025.9
20260906151500 19 280 0.0 0.0 0.00 0.13 0.00 51 1025.8
20260906150004 18 279 0.0 0.0 0.00 0.13 0.00 55 1026.1
20260906144500 17 279 0.0 0.0 0.00 0.13 0.00 59 1026.1
20260906142958 16 279 0.0 0.0 0.00 0.13 0.00 59 1026.1
20260906141500 15 242 0.0 0.0 0.00 0.13 0.00 65 1025.9
20260906140005 14 242 0.0 0.0 0.00 0.13 0.00 66 1025.9
20260906134501 13 242 0.0 0.0 0.00 0.13 0.00 72 1025.9
20260906133000 12 242 0.0 0.0 0.00 0.13 0.00 75 1025.8
20260906131458 11 242 0.0 0.0 0.00 0.13 0.00 75 1025.7
20260906130004 11 248 0.0 0.0 0.00 0.13 0.00 75 1025.6
20260906124458 10 246 0.0 0.0 0.00 0.13 0.00 78 1025.5
20260906123001 10 246 0.0 0.0 0.00 0.13 0.00 79 1025.4
20260906120003 11 246 0.0 0.0 0.00 0.13 0.00 75 1025.5
20260906114500 11 246 0.0 0.0 0.00 0.13 0.00 74 1025.5
20260906113000 11 246 0.0 0.0 0.00 0.13 0.00 76 1025.5
20260906111457 11 246 0.0 0.0 0.00 0.13 0.00 77 1025.3
20260906110003 10 246 0.0 0.0 0.00 0.13 0.00 79 1025.2
20260906104500 11 246 0.0 0.0 0.00 0.13 0.00 78 1025.3
20260906103000 11 246 0.0 0.0 0.00 0.13 0.00 76 1025.3
20260906101500 12 246 0.0 0.0 0.00 0.13 0.00 75 1025.3
20260906100003 11 246 0.0 0.0 0.00 0.13 0.00 76 1025.3
20260906094500 11 246 0.0 0.0 0.00 0.13 0.00 78 1025.6
20260906092958 11 246 0.0 0.0 0.00 0.13 0.00 77 1025.6
20260906091500 11 246 0.0 0.0 0.00 0.13 0.00 80 1025.6
20260906090003 11 246 0.0 0.0 0.00 0.13 0.00 81 1025.6
20260906084500 11 246 0.0 0.0 0.00 0.13 0.00 81 1025.4
20260906083000 11 246 0.0 0.0 0.00 0.13 0.00 81 1025.4
20260906081500 11 246 0.0 0.0 0.00 0.13 0.00 82 1025.6
20260906080002 11 246 0.0 0.0 0.00 0.13 0.00 82 1025.6
20260906074458 11 246 0.0 0.0 0.00 0.13 0.00 83 1025.6
20260906071500 11 246 0.0 0.0 0.00 0.13 0.00 83 1025.8
20260906070002 12 246 0.0 0.0 0.00 0.13 0.00 84 1025.9
20260906064501 12 246 0.0 0.0 0.00 0.13 0.00 85 1025.8
20260906063000 12 246 0.0 0.0 0.00 0.13 0.00 85 1026.0
20260906061501 12 246 0.0 0.0 0.00 0.13 0.00 86 1026.2
20260906060005 12 246 0.0 0.0 0.00 0.13 0.00 86 1026.1
20260906054502 13 246 0.0 0.0 0.00 0.13 0.13 86 1026.3
20260906053002 13 246 0.0 0.0 0.08 0.13 0.13 86 1026.5
20260906051501 13 246 0.0 0.0 0.13 0.13 0.13 85 1026.8
20260906050005 14 246 0.0 4.8 0.13 0.13 0.13 82 1026.6
20260906044502 15 238 0.0 3.2 0.13 0.13 0.13 80 1026.7
20260906043002 17 163 0.0 11.3 0.03 0.03 0.03 63 1026.6
20260906041500 19 30 0.0 16.1 0.00 0.00 0.00 53 1026.0
20260906040004 18 212 0.0 8.0 0.00 0.00 0.00 48 1026.0
20260906034500 19 277 0.0 0.0 0.00 0.00 0.00 47 1025.9
20260906033001 19 355 0.0 0.0 0.00 0.00 0.00 46 1025.5
20260906030004 18 351 0.0 0.0 0.00 0.00 0.00 46 1025.3
20260906024500 19 351 0.0 0.0 0.00 0.00 0.00 45 1025.1
20260906023000 19 291 0.0 0.0 0.00 0.00 0.00 44 1024.8
20260906021500 20 286 0.0 0.0 0.00 0.00 0.00 41 1024.6
20260906020003 21 286 0.0 0.0 0.00 0.00 0.00 39 1024.6
20260906014501 21 9 0.0 0.0 0.00 0.00 0.00 38 1024.5
20260906012959 22 350 0.0 1.6 0.00 0.00 0.00 37 1024.4
20260906011501 22 273 0.0 0.0 0.00 0.00 0.00 36 1024.4
20260906010006 22 20 0.0 0.0 0.00 0.00 0.00 34 1024.4
20260906004500 23 20 0.0 0.0 0.00 0.00 0.00 35 1024.3
20260906001501 24 20 0.0 0.0 0.00 0.00 0.00 33 1024.2
20260906000007 26 20 0.0 0.0 0.00 0.00 0.00 30 1024.1
20260905234501 26 13 0.0 0.0 0.00 0.00 0.00 31 1024.0
20260905233001 26 5 0.0 0.0 0.00 0.00 0.00 29 1024.1